Погода в Унгоофаару

Мальдивы     5°40′06″N   73°01′49″E
темп.,
°C
ветер,
м/с
пор.,
м/с
влажн.,
%
обл.,
%
осадки,
мм/ч
давл.,
гПа
погр.,
м
10 августа, ср
ср1023:00+27зсз698494 0.3 1009734
02:00+27з6880100 0.4 1007761
05:00+27з458074 0.4 1008636
08:00+27з458194 0.1 1009566
11:00+27з4580100 0.1 1009667
14:00+27з3480100 0.0 1006563
17:00+28з458092 0.2 1007579
20:00+27зсз468398 0.0 1008640
11 августа, чт
чт1123:00+27зсз478337 0.1 1009720
02:00+27зсз578345 0.6 1007700
05:00+27з458217 1.0 1008608
08:00+27з4582100 0.5 1009519
11:00+27зюз3480100 0.5 1010606
14:00+28з2378100 0.0 1008504
17:00+28з337717 0.2 1008583
20:00+27з33795 0.7 1009214
12 августа, пт
пт1223:00+27зюз237944 1.1 1010381
02:00+27зюз238138 0.9 1009264
05:00+27зюз33787 1.3 1009410
08:00+27зюз4477100 0.1 1011472
11:00+27зюз33778 0.1 1010416
14:00+27з347660 0.1 1008562
17:00+28з347584 0.1 1008658
20:00+27зсз3479100 0.0 1010648
13 августа, сб
сб1323:00+27зсз228167 0.6 1011212
02:00+26зсз3382100 1.0 1009296
05:00+27з348175 1.4 1009522
08:00+27з3482100 1.1 1010368
11:00+27з447980 2.0 1010482
14:00+27з3476100 0.1 1008614
17:00+28з3475100 0.1 1008684
20:00+27з2377100 0.1 1010601
14 августа, вс
вс1423:00+27сз337878 0.1 1011550
02:00+27сз447986 0.0 1008660
05:00+27зсз348046 0.4 1008548
08:00+27сз228112 0.4 1011231
11:00+27сз227744 0.6 1011574
14:00+27сз237679 0.0 1009668
17:00+27сз3375100 0.0 1009678
20:00+27ссз2377100 0.0 1010656